UKV1157 EGJJ-EGBB

Flight info

Callsign UKV1157
Flight time 0h 50m
Altitude 19000
Route BENIX G27 AKIKI/N0327F240 UM189 EPATI UM184 KOTEM M184 HEMEL
Aircraft CRJ7/M-RNVD1E2A1/S

Departure

Time 2026-05-04 00:15
Airport Jersey Airport (EGJJ)

Arrival

Time 2026-05-04 01:06
Airport Birmingham Airport (EGBB)
Time Latitude Longitude Altitude Speed Heading
2026-05-04 00:06 49.20602 -2.19771 285 ft 0 kts 76°
2026-05-04 00:10 49.20607 -2.19739 285 ft 9 kts 76°
2026-05-04 00:10 49.20661 -2.19643 285 ft 13 kts 40°
2026-05-04 00:10 49.20698 -2.19491 285 ft 19 kts 83°
2026-05-04 00:11 49.20692 -2.19302 285 ft 16 kts 105°
2026-05-04 00:11 49.20676 -2.19141 285 ft 16 kts 83°
2026-05-04 00:11 49.20691 -2.18950 285 ft 19 kts 83°
2026-05-04 00:11 49.20710 -2.18740 285 ft 21 kts 83°
2026-05-04 00:12 49.20728 -2.18524 285 ft 20 kts 82°
2026-05-04 00:12 49.20743 -2.18362 285 ft 7 kts 68°
2026-05-04 00:12 49.20765 -2.18326 285 ft 4 kts 26°
2026-05-04 00:12 49.20786 -2.18321 285 ft 0 kts
2026-05-04 00:14 49.20787 -2.18321 285 ft 2 kts
2026-05-04 00:14 49.20847 -2.18354 285 ft 11 kts 335°
2026-05-04 00:14 49.20888 -2.18416 285 ft 6 kts 253°
2026-05-04 00:14 49.20888 -2.18426 285 ft 4 kts 263°
2026-05-04 00:15 49.20859 -2.18740 285 ft 68 kts 262°
2026-05-04 00:15 49.20768 -2.19865 285 ft 141 kts 258°
2026-05-04 00:15 49.20673 -2.21429 902 ft 130 kts 255°
2026-05-04 00:15 49.20373 -2.22611 1860 ft 108 kts 232°
2026-05-04 00:16 49.20012 -2.23540 2608 ft 81 kts 210°
2026-05-04 00:16 49.19400 -2.23889 2919 ft 106 kts 187°
2026-05-04 00:16 49.18774 -2.24165 3768 ft 87 kts 175°
2026-05-04 00:16 49.18242 -2.23718 4355 ft 93 kts 147°
2026-05-04 00:17 49.17774 -2.22947 4851 ft 104 kts 149°
2026-05-04 00:17 49.17281 -2.22074 5308 ft 116 kts 147°
2026-05-04 00:17 49.16750 -2.20852 5587 ft 154 kts 132°
2026-05-04 00:17 49.16214 -2.19294 6065 ft 170 kts 131°
2026-05-04 00:18 49.15676 -2.17578 6683 ft 186 kts 126°
2026-05-04 00:18 49.15212 -2.15641 7300 ft 196 kts 120°
2026-05-04 00:18 49.14827 -2.13573 7933 ft 203 kts 116°
2026-05-04 00:18 49.14493 -2.11391 8570 ft 209 kts 113°
2026-05-04 00:19 49.14204 -2.09145 9191 ft 212 kts 111°
2026-05-04 00:19 49.13949 -2.06896 9777 ft 215 kts 109°
2026-05-04 00:19 49.13703 -2.04575 10348 ft 218 kts 107°
2026-05-04 00:19 49.13468 -2.02205 10905 ft 222 kts 105°
2026-05-04 00:20 49.13245 -1.99794 11450 ft 227 kts 104°
2026-05-04 00:20 49.13047 -1.97348 11986 ft 233 kts 99°
2026-05-04 00:20 49.13103 -1.94787 12535 ft 239 kts 76°
2026-05-04 00:20 49.13718 -1.92344 13120 ft 236 kts 53°
2026-05-04 00:21 49.14732 -1.90254 13727 ft 235 kts 39°
2026-05-04 00:21 49.15895 -1.88402 14334 ft 237 kts 35°
2026-05-04 00:21 49.17070 -1.86630 14930 ft 239 kts 36°
2026-05-04 00:21 49.18290 -1.84777 15554 ft 241 kts 36°
2026-05-04 00:22 49.19506 -1.82882 16190 ft 243 kts 38°
2026-05-04 00:22 49.20701 -1.80966 16826 ft 243 kts 38°
2026-05-04 00:22 49.21970 -1.79166 17477 ft 238 kts 29°
2026-05-04 00:22 49.23361 -1.77694 18118 ft 235 kts 21°
2026-05-04 00:23 49.24819 -1.76371 18722 ft 242 kts 19°
2026-05-04 00:23 49.26369 -1.75024 18946 ft 267 kts 19°
2026-05-04 00:23 49.28056 -1.73575 19003 ft 294 kts 20°
2026-05-04 00:23 49.29901 -1.71981 19007 ft 319 kts 21°
2026-05-04 00:24 49.31864 -1.70253 19008 ft 340 kts 23°
2026-05-04 00:24 49.33871 -1.68429 19008 ft 350 kts 24°
2026-05-04 00:24 49.35965 -1.66461 19007 ft 356 kts 25°
2026-05-04 00:24 49.38083 -1.64435 19006 ft 361 kts 25°
2026-05-04 00:25 49.40234 -1.62385 19004 ft 365 kts 25°
2026-05-04 00:25 49.42412 -1.60334 19003 ft 368 kts 25°
2026-05-04 00:25 49.44615 -1.58284 19002 ft 371 kts 25°
2026-05-04 00:25 49.46801 -1.56266 19000 ft 373 kts 25°
2026-05-04 00:26 49.49035 -1.54209 18999 ft 375 kts 25°
2026-05-04 00:26 49.51263 -1.52156 18998 ft 377 kts 25°
2026-05-04 00:26 49.53506 -1.50079 18995 ft 379 kts 26°
2026-05-04 00:26 49.55644 -1.47681 18994 ft 385 kts 36°
2026-05-04 00:27 49.57537 -1.44788 18997 ft 389 kts 43°
2026-05-04 00:27 49.59312 -1.41694 18996 ft 390 kts 45°
2026-05-04 00:27 49.61086 -1.38565 18995 ft 391 kts 45°
2026-05-04 00:27 49.62899 -1.35430 18995 ft 391 kts 44°
2026-05-04 00:28 49.64715 -1.32373 18995 ft 392 kts 43°
2026-05-04 00:28 49.66583 -1.29295 18995 ft 392 kts 42°
2026-05-04 00:28 49.68466 -1.26225 18995 ft 392 kts 42°
2026-05-04 00:28 49.70345 -1.23159 18996 ft 392 kts 42°
2026-05-04 00:29 49.72222 -1.20078 18997 ft 393 kts 43°
2026-05-04 00:29 49.74085 -1.17002 18998 ft 393 kts 43°
2026-05-04 00:29 49.75932 -1.13938 18999 ft 393 kts 43°
2026-05-04 00:29 49.77840 -1.10918 19000 ft 391 kts 37°
2026-05-04 00:30 49.80066 -1.08611 19001 ft 380 kts 18°
2026-05-04 00:30 49.82569 -1.07473 19005 ft 369 kts
2026-05-04 00:30 49.85088 -1.07108 19004 ft 364 kts 355°
2026-05-04 00:30 49.87625 -1.06934 19004 ft 364 kts 354°
2026-05-04 00:31 49.90170 -1.06732 19004 ft 364 kts 355°
2026-05-04 00:31 49.92589 -1.06477 19004 ft 365 kts 356°
2026-05-04 00:31 49.95072 -1.06154 19004 ft 366 kts 357°
2026-05-04 00:31 49.97617 -1.05782 19004 ft 366 kts 358°
2026-05-04 00:32 50.00168 -1.05395 19004 ft 366 kts 358°
2026-05-04 00:32 50.02716 -1.05023 19003 ft 366 kts 358°
2026-05-04 00:32 50.05275 -1.04678 19003 ft 367 kts 358°
2026-05-04 00:32 50.07796 -1.04330 19002 ft 367 kts 358°
2026-05-04 00:33 50.10341 -1.03968 19002 ft 368 kts 358°
2026-05-04 00:33 50.15458 -1.03237 19000 ft 368 kts 358°
2026-05-04 00:33 50.18020 -1.02877 18998 ft 368 kts 358°
2026-05-04 00:34 50.20583 -1.02518 18997 ft 368 kts 358°
2026-05-04 00:34 50.23145 -1.02161 18996 ft 369 kts 358°
2026-05-04 00:34 50.25703 -1.01803 18994 ft 369 kts 358°
2026-05-04 00:34 50.28276 -1.01443 18993 ft 369 kts 358°
2026-05-04 00:35 50.30818 -1.01087 18991 ft 369 kts 358°
2026-05-04 00:35 50.33380 -1.00728 18990 ft 369 kts 358°
2026-05-04 00:35 50.35943 -1.00372 18988 ft 369 kts 358°
2026-05-04 00:35 50.38505 -1.00018 18986 ft 369 kts 358°
2026-05-04 00:36 50.41063 -0.99659 18984 ft 369 kts 358°
2026-05-04 00:36 50.43621 -0.99296 18983 ft 370 kts 358°
2026-05-04 00:36 50.46081 -0.98947 18981 ft 370 kts 358°
2026-05-04 00:36 50.48640 -0.98584 18979 ft 370 kts 358°
2026-05-04 00:37 50.51168 -0.98224 18978 ft 370 kts 358°
2026-05-04 00:37 50.53730 -0.97860 18978 ft 370 kts 358°
2026-05-04 00:37 50.56285 -0.97503 18977 ft 370 kts 358°
2026-05-04 00:37 50.58837 -0.97146 18976 ft 370 kts 358°
2026-05-04 00:38 50.61365 -0.96787 18975 ft 370 kts 358°
2026-05-04 00:38 50.63666 -0.96458 18974 ft 370 kts 358°
2026-05-04 00:38 50.66102 -0.96109 18972 ft 370 kts 358°
2026-05-04 00:38 50.68608 -0.95750 18971 ft 370 kts 358°
2026-05-04 00:39 50.71161 -0.95386 18969 ft 371 kts 358°
2026-05-04 00:39 50.73708 -0.95029 18968 ft 371 kts 358°
2026-05-04 00:39 50.76198 -0.94678 18972 ft 371 kts 359°
2026-05-04 00:39 50.78741 -0.94313 18982 ft 371 kts 359°
2026-05-04 00:40 50.81292 -0.93922 18982 ft 372 kts
2026-05-04 00:40 50.83746 -0.93164 18984 ft 377 kts
2026-05-04 00:40 50.86238 -0.91909 18987 ft 379 kts 13°
2026-05-04 00:40 50.88724 -0.90514 18985 ft 380 kts 14°
2026-05-04 00:41 50.91200 -0.89130 18983 ft 380 kts 14°
2026-05-04 00:41 50.93674 -0.87785 18982 ft 379 kts 13°
2026-05-04 00:41 50.96088 -0.86507 18980 ft 379 kts 13°
2026-05-04 00:41 50.98582 -0.85211 18979 ft 379 kts 12°
2026-05-04 00:42 51.01047 -0.83941 18978 ft 379 kts 12°
2026-05-04 00:42 51.03552 -0.82654 18977 ft 379 kts 12°
2026-05-04 00:42 51.05948 -0.81421 18976 ft 379 kts 12°
2026-05-04 00:42 51.08408 -0.80146 18975 ft 379 kts 12°
2026-05-04 00:43 51.10892 -0.78853 18974 ft 380 kts 13°
2026-05-04 00:43 51.13399 -0.77544 18973 ft 380 kts 13°
2026-05-04 00:43 51.15900 -0.76238 18972 ft 380 kts 13°
2026-05-04 00:43 51.18399 -0.74930 18970 ft 379 kts 13°
2026-05-04 00:44 51.20878 -0.73629 18970 ft 379 kts 13°
2026-05-04 00:44 51.23382 -0.72314 18970 ft 379 kts 13°
2026-05-04 00:44 51.25861 -0.71011 18971 ft 379 kts 13°
2026-05-04 00:44 51.28358 -0.69698 18973 ft 379 kts 13°
2026-05-04 00:45 51.30856 -0.68385 18975 ft 379 kts 13°
2026-05-04 00:45 51.33353 -0.67070 18978 ft 379 kts 13°
2026-05-04 00:45 51.35817 -0.65772 18981 ft 379 kts 13°
2026-05-04 00:45 51.38302 -0.64462 18985 ft 379 kts 13°
2026-05-04 00:46 51.40745 -0.63174 18989 ft 379 kts 13°
2026-05-04 00:46 51.43240 -0.61857 18993 ft 379 kts 13°
2026-05-04 00:46 51.45698 -0.60557 18997 ft 379 kts 13°
2026-05-04 00:46 51.48096 -0.59289 19001 ft 379 kts 13°
2026-05-04 00:47 51.50626 -0.57948 19006 ft 379 kts 13°
2026-05-04 00:47 51.53085 -0.56641 19009 ft 379 kts 13°
2026-05-04 00:47 51.55500 -0.55354 19012 ft 379 kts 13°
2026-05-04 00:47 51.57927 -0.54059 19014 ft 379 kts 13°
2026-05-04 00:48 51.60400 -0.52738 19015 ft 379 kts 13°
2026-05-04 00:48 51.62882 -0.51411 19015 ft 379 kts 13°
2026-05-04 00:48 51.65361 -0.50086 19015 ft 379 kts 13°
2026-05-04 00:48 51.67813 -0.48775 19014 ft 379 kts 13°
2026-05-04 00:49 51.70338 -0.47423 19012 ft 379 kts 13°
2026-05-04 00:49 51.72695 -0.46160 19010 ft 379 kts 13°
2026-05-04 00:49 51.75142 -0.44847 19010 ft 379 kts 13°
2026-05-04 00:49 51.77649 -0.43561 19010 ft 377 kts
2026-05-04 00:50 51.80187 -0.43077 19007 ft 366 kts 351°
2026-05-04 00:50 51.82532 -0.43922 19009 ft 354 kts 332°
2026-05-04 00:50 51.84695 -0.45684 19008 ft 348 kts 322°
2026-05-04 00:50 51.86613 -0.47619 19005 ft 347 kts 321°
2026-05-04 00:51 51.88622 -0.49684 19000 ft 348 kts 321°
2026-05-04 00:51 51.90670 -0.51760 18997 ft 348 kts 321°
2026-05-04 00:51 51.92739 -0.53812 18995 ft 349 kts 322°
2026-05-04 00:51 51.94786 -0.55812 18955 ft 345 kts 322°
2026-05-04 00:52 51.96792 -0.57752 18713 ft 339 kts 322°
2026-05-04 00:52 51.98775 -0.59674 18458 ft 333 kts 322°
2026-05-04 00:52 52.00711 -0.61561 18147 ft 331 kts 322°
2026-05-04 00:52 52.02668 -0.63490 17817 ft 329 kts 322°
2026-05-04 00:53 52.03906 -0.64718 17608 ft 328 kts 322°
2026-05-04 00:53 52.06088 -0.66867 17244 ft 327 kts 323°
2026-05-04 00:53 52.08006 -0.68740 16928 ft 326 kts 323°
2026-05-04 00:53 52.09845 -0.70531 16628 ft 326 kts 322°
2026-05-04 00:54 52.11757 -0.72397 16319 ft 325 kts 322°
2026-05-04 00:54 52.13625 -0.74227 16020 ft 324 kts 322°
2026-05-04 00:54 52.15548 -0.76120 15715 ft 323 kts 322°
2026-05-04 00:54 52.17420 -0.77968 15420 ft 323 kts 322°
2026-05-04 00:55 52.19295 -0.79822 15128 ft 322 kts 322°
2026-05-04 00:55 52.21140 -0.81649 14843 ft 321 kts 322°
2026-05-04 00:55 52.22923 -0.83637 14547 ft 315 kts 312°
2026-05-04 00:55 52.24262 -0.86254 14220 ft 304 kts 294°
2026-05-04 00:56 52.25108 -0.89338 13863 ft 298 kts 282°
2026-05-04 00:56 52.25686 -0.92525 13476 ft 291 kts 279°
2026-05-04 00:56 52.26185 -0.95636 13070 ft 280 kts 278°
2026-05-04 00:56 52.26619 -0.98535 12673 ft 274 kts 276°
2026-05-04 00:57 52.27038 -1.01522 12261 ft 271 kts 276°
2026-05-04 00:57 52.27417 -1.04338 11872 ft 269 kts 275°
2026-05-04 00:57 52.27807 -1.07271 11462 ft 267 kts 275°
2026-05-04 00:57 52.28197 -1.10171 11050 ft 265 kts 275°
2026-05-04 00:58 52.28589 -1.13035 10630 ft 259 kts 274°
2026-05-04 00:58 52.29020 -1.15749 10184 ft 257 kts 282°
2026-05-04 00:58 52.29864 -1.18216 9732 ft 265 kts 296°
2026-05-04 00:58 52.30976 -1.20566 9266 ft 265 kts 298°
2026-05-04 00:59 52.31995 -1.22953 8785 ft 263 kts 292°
2026-05-04 00:59 52.32911 -1.25406 8409 ft 264 kts 292°
2026-05-04 00:59 52.33679 -1.28038 7926 ft 254 kts 275°
2026-05-04 00:59 52.33780 -1.30692 7391 ft 238 kts 250°
2026-05-04 01:00 52.33453 -1.33284 6847 ft 235 kts 244°
2026-05-04 01:00 52.33129 -1.35900 6289 ft 239 kts 246°
2026-05-04 01:00 52.32868 -1.38558 5768 ft 240 kts 249°
2026-05-04 01:00 52.32604 -1.41243 5304 ft 246 kts 249°
2026-05-04 01:01 52.32360 -1.43898 4814 ft 237 kts 252°
2026-05-04 01:01 52.32115 -1.46457 4369 ft 226 kts 249°
2026-05-04 01:01 52.31888 -1.48889 3996 ft 212 kts 250°
2026-05-04 01:01 52.31668 -1.51192 3642 ft 202 kts 250°
2026-05-04 01:02 52.31453 -1.53426 3328 ft 201 kts 250°
2026-05-04 01:02 52.31236 -1.55684 3136 ft 206 kts 252°
2026-05-04 01:02 52.31422 -1.58036 3055 ft 224 kts 283°
2026-05-04 01:02 52.32286 -1.60138 3057 ft 226 kts 308°
2026-05-04 01:03 52.33453 -1.61751 2961 ft 229 kts 319°
2026-05-04 01:03 52.34327 -1.62748 2783 ft 235 kts 322°
2026-05-04 01:03 52.35699 -1.64247 2476 ft 245 kts 323°
2026-05-04 01:03 52.37112 -1.65762 2145 ft 238 kts 324°
2026-05-04 01:04 52.38437 -1.67171 1838 ft 221 kts 325°
2026-05-04 01:04 52.40031 -1.68900 1468 ft 193 kts 325°
2026-05-04 01:04 52.41084 -1.70067 1251 ft 179 kts 325°
2026-05-04 01:04 52.42081 -1.71160 999 ft 170 kts 326°
2026-05-04 01:05 52.42723 -1.71854 842 ft 161 kts 325°
2026-05-04 01:05 52.43653 -1.72858 661 ft 163 kts 326°
2026-05-04 01:05 52.44609 -1.73922 409 ft 166 kts 324°
2026-05-04 01:05 52.45446 -1.74861 335 ft 120 kts 324°
2026-05-04 01:06 52.45910 -1.75384 335 ft 35 kts 326°
2026-05-04 01:06 52.46048 -1.75537 335 ft 14 kts 326°
2026-05-04 01:06 52.46121 -1.75603 335 ft 11 kts 358°
2026-05-04 01:06 52.46180 -1.75526 335 ft 13 kts 55°
2026-05-04 01:07 52.46199 -1.75383 335 ft 17 kts 133°
2026-05-04 01:07 52.46087 -1.75252 335 ft 23 kts 146°
2026-05-04 01:07 52.45925 -1.75072 335 ft 34 kts 146°
2026-05-04 01:07 52.45722 -1.74843 335 ft 33 kts 147°
2026-05-04 01:08 52.45579 -1.74685 335 ft 17 kts 145°
2026-05-04 01:08 52.45475 -1.74563 335 ft 20 kts 133°
2026-05-04 01:08 52.45402 -1.74347 335 ft 25 kts 117°
2026-05-04 01:08 52.45267 -1.74142 335 ft 27 kts 145°
2026-05-04 01:09 52.45107 -1.73968 335 ft 28 kts 146°
2026-05-04 01:09 52.44977 -1.73825 335 ft 21 kts 146°
2026-05-04 01:09 52.44872 -1.73708 335 ft 13 kts 136°
2026-05-04 01:09 52.44883 -1.73572 335 ft 12 kts 65°
2026-05-04 01:10 52.44872 -1.73491 335 ft 10 kts 107°
2026-05-04 01:10 52.44863 -1.73441 335 ft 4 kts 107°
2026-05-04 01:10 52.44862 -1.73438 335 ft 0 kts 107°